Time,TemperatureF,DewpointF,PressureIn,WindDirection,WindDirectionDegrees,WindSpeedMPH,WindSpeedGustMPH,Humidity,HourlyPrecipIn,Conditions,Clouds,dailyrainin,SoftwareType,DateUTC
2013-01-08 00:04:00,40.3,33.3,30.15,NE,42,1.0,4.0,76,0.00,,,1.25,Wunderground v.1.15,2013-01-08 08:04:00,
2013-01-08 00:10:00,40.1,32.8,30.15,North,352,0.0,4.0,75,0.00,,,1.25,Wunderground v.1.15,2013-01-08 08:10:00,
2013-01-08 00:15:00,40.0,32.7,30.15,North,352,1.0,4.0,75,0.00,,,1.25,Wunderground v.1.15,2013-01-08 08:15:00,
2013-01-08 00:19:00,39.9,32.6,30.15,North,353,0.0,4.0,75,0.00,,,1.25,Wunderground v.1.15,2013-01-08 08:19:00,
2013-01-08 00:24:00,39.7,32.1,30.15,North,352,0.0,4.0,74,0.00,,,1.25,Wunderground v.1.15,2013-01-08 08:24:00,
2013-01-08 00:30:00,39.7,32.1,30.15,North,353,0.0,4.0,74,0.00,,,0.00,Wunderground v.1.15,2013-01-08 08:30:00,
2013-01-08 00:35:00,39.8,31.8,30.15,North,352,0.0,4.0,73,0.00,,,0.00,Wunderground v.1.15,2013-01-08 08:35:00,
2013-01-08 00:40:00,39.7,31.8,30.15,North,352,0.0,4.0,73,0.00,,,0.00,Wunderground v.1.15,2013-01-08 08:40:00,
2013-01-08 00:44:00,39.7,31.8,30.15,North,353,0.0,4.0,73,0.00,,,0.00,Wunderground v.1.15,2013-01-08 08:44:00,
2013-01-08 00:49:00,39.8,31.5,30.15,North,353,0.0,4.0,72,0.00,,,0.00,Wunderground v.1.15,2013-01-08 08:49:00,
2013-01-08 00:55:00,39.9,31.6,30.15,North,353,0.0,4.0,72,0.00,,,0.00,Wunderground v.1.15,2013-01-08 08:55:00,
2013-01-08 01:00:00,40.1,31.8,30.15,North,352,0.0,4.0,72,0.00,,,0.00,Wunderground v.1.15,2013-01-08 09:00:00,
2013-01-08 01:04:00,40.3,32.0,30.15,North,353,0.0,4.0,72,0.00,,,0.00,Wunderground v.1.15,2013-01-08 09:04:00,
2013-01-08 01:09:00,40.3,32.0,30.15,North,353,0.0,4.0,72,0.00,,,0.00,Wunderground v.1.15,2013-01-08 09:09:00,
2013-01-08 01:14:00,40.3,32.0,30.16,North,352,0.0,4.0,72,0.00,,,0.00,Wunderground v.1.15,2013-01-08 09:14:00,
2013-01-08 01:19:00,40.3,32.0,30.15,North,353,0.0,4.0,72,0.00,,,0.00,Wunderground v.1.15,2013-01-08 09:19:00,
2013-01-08 01:25:00,40.3,32.0,30.15,North,9,1.0,4.0,72,0.00,,,0.00,Wunderground v.1.15,2013-01-08 09:25:00,
2013-01-08 01:30:00,40.4,32.1,30.15,North,9,1.0,1.0,72,0.00,,,0.00,Wunderground v.1.15,2013-01-08 09:30:00,
2013-01-08 01:34:00,40.3,32.0,30.15,North,8,0.0,4.0,72,0.00,,,0.00,Wunderground v.1.15,2013-01-08 09:34:00,
2013-01-08 01:39:00,40.3,32.0,30.15,North,9,0.0,4.0,72,0.00,,,0.00,Wunderground v.1.15,2013-01-08 09:39:00,
2013-01-08 01:45:00,40.2,31.9,30.16,ESE,103,0.0,4.0,72,0.00,,,0.00,Wunderground v.1.15,2013-01-08 09:45:00,
2013-01-08 01:50:00,40.2,31.9,30.15,East,101,0.0,4.0,72,0.00,,,0.00,Wunderground v.1.15,2013-01-08 09:50:00,
2013-01-08 01:55:00,40.2,31.9,30.15,East,101,0.0,4.0,72,0.00,,,0.00,Wunderground v.1.15,2013-01-08 09:55:00,
2013-01-08 02:04:00,40.0,31.7,30.15,East,101,0.0,4.0,72,0.00,,,0.00,Wunderground v.1.15,2013-01-08 10:04:00,
2013-01-08 02:10:00,39.9,31.6,30.15,East,101,0.0,4.0,72,0.00,,,0.00,Wunderground v.1.15,2013-01-08 10:10:00,
2013-01-08 02:15:00,40.0,31.7,30.15,East,101,0.0,4.0,72,0.00,,,0.00,Wunderground v.1.15,2013-01-08 10:15:00,
2013-01-08 02:19:00,39.9,31.6,30.15,East,101,0.0,4.0,72,0.00,,,0.00,Wunderground v.1.15,2013-01-08 10:19:00,
2013-01-08 02:24:00,40.0,31.7,30.14,NW,316,0.0,4.0,72,0.00,,,0.00,Wunderground v.1.15,2013-01-08 10:24:00,
2013-01-08 02:29:00,40.0,31.7,30.15,ENE,72,0.0,4.0,72,0.00,,,0.00,Wunderground v.1.15,2013-01-08 10:29:00,
2013-01-08 02:35:00,40.0,31.7,30.14,North,8,0.0,4.0,72,0.00,,,0.00,Wunderground v.1.15,2013-01-08 10:35:00,
2013-01-08 02:40:00,40.0,31.7,30.15,North,8,0.0,4.0,72,0.00,,,0.00,Wunderground v.1.15,2013-01-08 10:40:00,
2013-01-08 02:44:00,40.0,31.7,30.15,North,9,0.0,4.0,72,0.00,,,0.00,Wunderground v.1.15,2013-01-08 10:44:00,
2013-01-08 02:49:00,40.0,31.7,30.15,North,8,0.0,4.0,72,0.00,,,0.00,Wunderground v.1.15,2013-01-08 10:49:00,
2013-01-08 02:55:00,40.0,31.7,30.15,North,8,0.0,4.0,72,0.00,,,0.00,Wunderground v.1.15,2013-01-08 10:55:00,
2013-01-08 03:00:00,40.0,31.7,30.15,North,9,0.0,4.0,72,0.00,,,0.00,Wunderground v.1.15,2013-01-08 11:00:00,
2013-01-08 03:05:00,40.0,31.7,30.15,North,9,0.0,4.0,72,0.00,,,0.00,Wunderground v.1.15,2013-01-08 11:05:00,
2013-01-08 03:09:00,40.0,31.7,30.14,North,8,0.0,4.0,72,0.00,,,0.00,Wunderground v.1.15,2013-01-08 11:09:00,
2013-01-08 03:14:00,40.0,31.7,30.14,North,9,0.0,4.0,72,0.00,,,0.00,Wunderground v.1.15,2013-01-08 11:14:00,
2013-01-08 03:19:00,40.1,31.8,30.14,North,8,0.0,4.0,72,0.00,,,0.00,Wunderground v.1.15,2013-01-08 11:19:00,
2013-01-08 03:25:00,40.1,31.8,30.14,North,9,0.0,4.0,72,0.00,,,0.00,Wunderground v.1.15,2013-01-08 11:25:00,
2013-01-08 03:30:00,40.1,31.8,30.14,North,9,0.0,4.0,72,0.00,,,0.00,Wunderground v.1.15,2013-01-08 11:30:00,
2013-01-08 03:34:00,40.2,31.9,30.14,NNE,18,0.0,4.0,72,0.00,,,0.00,Wunderground v.1.15,2013-01-08 11:34:00,
2013-01-08 03:39:00,40.3,32.0,30.14,NNE,18,0.0,4.0,72,0.00,,,0.01,Wunderground v.1.15,2013-01-08 11:39:00,
2013-01-08 03:44:00,40.3,32.0,30.13,NNE,18,0.0,4.0,72,0.00,,,0.01,Wunderground v.1.15,2013-01-08 11:44:00,
2013-01-08 03:50:00,40.4,32.4,30.13,NE,39,0.0,4.0,73,0.00,,,0.01,Wunderground v.1.15,2013-01-08 11:50:00,
2013-01-08 03:54:00,40.4,32.4,30.13,NNW,344,0.0,4.0,73,0.00,,,0.02,Wunderground v.1.15,2013-01-08 11:54:00,
2013-01-08 03:59:00,40.4,32.4,30.13,NE,51,0.0,4.0,73,0.00,,,0.02,Wunderground v.1.15,2013-01-08 11:59:00,
2013-01-08 04:04:00,40.5,32.5,30.13,ENE,71,0.0,4.0,73,0.00,,,0.02,Wunderground v.1.15,2013-01-08 12:04:00,
2013-01-08 04:10:00,40.5,32.5,30.12,NE,47,1.0,4.0,73,0.00,,,0.02,Wunderground v.1.15,2013-01-08 12:10:00,
2013-01-08 04:15:00,40.6,32.6,30.12,ESE,117,1.0,4.0,73,0.00,,,0.02,Wunderground v.1.15,2013-01-08 12:15:00,
2013-01-08 04:20:00,40.6,32.6,30.12,NW,317,1.0,1.0,73,0.00,,,0.02,Wunderground v.1.15,2013-01-08 12:20:00,
2013-01-08 04:24:00,40.6,32.6,30.12,NE,42,1.0,2.0,73,0.00,,,0.02,Wunderground v.1.15,2013-01-08 12:24:00,
2013-01-08 04:29:00,40.6,32.6,30.12,SW,233,1.0,1.0,73,0.00,,,0.02,Wunderground v.1.15,2013-01-08 12:29:00,
2013-01-08 04:35:00,40.6,32.6,30.12,NE,47,1.0,4.0,73,0.00,,,0.02,Wunderground v.1.15,2013-01-08 12:35:00,
2013-01-08 04:40:00,40.6,32.3,30.12,WNW,288,1.0,4.0,72,0.00,,,0.02,Wunderground v.1.15,2013-01-08 12:40:00,
2013-01-08 04:44:00,40.5,32.2,30.12,ENE,57,1.0,4.0,72,0.00,,,0.02,Wunderground v.1.15,2013-01-08 12:44:00,
2013-01-08 04:49:00,40.5,32.2,30.12,West,264,1.0,1.0,72,0.00,,,0.02,Wunderground v.1.15,2013-01-08 12:49:00,
2013-01-08 04:54:00,40.5,32.2,30.12,NE,44,1.0,2.0,72,0.00,,,0.02,Wunderground v.1.15,2013-01-08 12:54:00,
2013-01-08 05:00:00,40.4,32.1,30.12,North,354,1.0,1.0,72,0.00,,,0.02,Wunderground v.1.15,2013-01-08 13:00:00,
2013-01-08 05:05:00,40.4,32.1,30.12,North,353,1.0,2.0,72,0.00,,,0.02,Wunderground v.1.15,2013-01-08 13:05:00,
2013-01-08 05:09:00,40.4,32.1,30.11,NE,43,1.0,1.0,72,0.00,,,0.02,Wunderground v.1.15,2013-01-08 13:09:00,
2013-01-08 05:14:00,40.3,32.0,30.11,WSW,255,1.0,4.0,72,0.00,,,0.02,Wunderground v.1.15,2013-01-08 13:14:00,
2013-01-08 05:20:00,40.3,32.0,30.11,SE,142,0.0,4.0,72,0.00,,,0.02,Wunderground v.1.15,2013-01-08 13:20:00,
2013-01-08 05:25:00,40.2,31.9,30.10,East,84,1.0,4.0,72,0.00,,,0.02,Wunderground v.1.15,2013-01-08 13:25:00,
2013-01-08 05:30:00,40.2,31.9,30.10,North,355,1.0,4.0,72,0.00,,,0.02,Wunderground v.1.15,2013-01-08 13:30:00,
2013-01-08 05:39:00,40.1,32.1,30.10,ENE,60,1.0,4.0,73,0.00,,,0.02,Wunderground v.1.15,2013-01-08 13:39:00,
2013-01-08 05:45:00,40.1,32.1,30.10,North,356,1.0,4.0,73,0.00,,,0.02,Wunderground v.1.15,2013-01-08 13:45:00,
2013-01-08 05:50:00,40.0,32.0,30.10,West,259,1.0,4.0,73,0.00,,,0.02,Wunderground v.1.15,2013-01-08 13:50:00,
2013-01-08 05:54:00,40.0,32.0,30.10,ENE,63,1.0,4.0,73,0.00,,,0.02,Wunderground v.1.15,2013-01-08 13:54:00,
2013-01-08 05:59:00,40.0,32.0,30.10,SSW,207,1.0,1.0,73,0.00,,,0.02,Wunderground v.1.15,2013-01-08 13:59:00,
2013-01-08 06:05:00,40.0,32.0,30.10,SW,219,1.0,4.0,73,0.00,,,0.02,Wunderground v.1.15,2013-01-08 14:05:00,
2013-01-08 06:10:00,40.0,32.0,30.10,NE,56,0.0,4.0,73,0.00,,,0.02,Wunderground v.1.15,2013-01-08 14:10:00,
2013-01-08 06:15:00,40.0,32.0,30.09,West,276,1.0,4.0,73,0.00,,,0.02,Wunderground v.1.15,2013-01-08 14:15:00,
2013-01-08 06:24:00,39.9,31.9,30.09,West,264,1.0,4.0,73,0.00,,,0.03,Wunderground v.1.15,2013-01-08 14:24:00,
2013-01-08 06:30:00,39.9,31.9,30.09,NW,312,1.0,4.0,73,0.00,,,0.03,Wunderground v.1.15,2013-01-08 14:30:00,
2013-01-08 06:35:00,39.9,31.9,30.08,NNE,16,0.0,4.0,73,0.00,,,0.03,Wunderground v.1.15,2013-01-08 14:35:00,
2013-01-08 06:39:00,39.9,31.9,30.08,NW,316,1.0,4.0,73,0.00,,,0.03,Wunderground v.1.15,2013-01-08 14:39:00,
2013-01-08 06:44:00,39.9,31.9,30.07,West,269,1.0,4.0,73,0.00,,,0.03,Wunderground v.1.15,2013-01-08 14:44:00,
2013-01-08 06:49:00,39.9,31.9,30.07,West,278,1.0,4.0,73,0.00,,,0.03,Wunderground v.1.15,2013-01-08 14:49:00,
2013-01-08 06:55:00,39.9,32.3,30.06,NW,318,1.0,4.0,74,0.00,,,0.03,Wunderground v.1.15,2013-01-08 14:55:00,
2013-01-08 07:00:00,39.8,32.2,30.06,NNE,32,1.0,4.0,74,0.00,,,0.04,Wunderground v.1.15,2013-01-08 15:00:00,
2013-01-08 07:04:00,39.7,32.1,30.06,NNW,334,1.0,4.0,74,0.00,,,0.04,Wunderground v.1.15,2013-01-08 15:04:00,
2013-01-08 07:09:00,39.7,32.4,30.05,ENE,57,2.0,4.0,75,0.00,,,0.04,Wunderground v.1.15,2013-01-08 15:09:00,
2013-01-08 07:14:00,39.6,32.3,30.05,NNW,339,2.0,4.0,75,0.00,,,0.04,Wunderground v.1.15,2013-01-08 15:14:00,
2013-01-08 07:20:00,39.6,32.3,30.05,NNE,14,2.0,2.0,75,0.00,,,0.04,Wunderground v.1.15,2013-01-08 15:20:00,
2013-01-08 07:25:00,39.6,32.3,30.05,North,349,2.0,4.0,75,0.00,,,0.05,Wunderground v.1.15,2013-01-08 15:25:00,
2013-01-08 07:29:00,39.6,32.3,30.04,WSW,237,2.0,2.0,75,0.00,,,0.05,Wunderground v.1.15,2013-01-08 15:29:00,
2013-01-08 07:34:00,39.5,32.6,30.04,SE,128,2.0,4.0,76,0.04,,,0.06,Wunderground v.1.15,2013-01-08 15:34:00,
2013-01-08 07:39:00,39.5,32.6,30.04,NW,314,1.0,1.0,76,0.04,,,0.06,Wunderground v.1.15,2013-01-08 15:39:00,
2013-01-08 07:45:00,39.4,32.1,30.04,NNW,335,1.0,4.0,75,0.04,,,0.06,Wunderground v.1.15,2013-01-08 15:45:00,
2013-01-08 07:50:00,39.4,32.1,30.04,ENE,60,1.0,4.0,75,0.05,,,0.07,Wunderground v.1.15,2013-01-08 15:50:00,
2013-01-08 07:55:00,39.3,32.0,30.04,NW,323,2.0,4.0,75,0.05,,,0.07,Wunderground v.1.15,2013-01-08 15:55:00,
2013-01-08 07:59:00,39.3,31.7,30.04,NW,316,1.0,4.0,74,0.06,,,0.08,Wunderground v.1.15,2013-01-08 15:59:00,
2013-01-08 08:04:00,39.3,31.7,30.04,NE,37,1.0,4.0,74,0.09,,,0.09,Wunderground v.1.15,2013-01-08 16:04:00,
2013-01-08 08:10:00,39.2,31.6,30.04,ENE,65,1.0,4.0,74,0.12,,,0.10,Wunderground v.1.15,2013-01-08 16:10:00,
2013-01-08 08:15:00,39.2,31.3,30.04,NNW,342,1.0,4.0,73,0.13,,,0.11,Wunderground v.1.15,2013-01-08 16:15:00,
2013-01-08 08:19:00,39.2,31.3,30.04,NNW,338,1.0,4.0,73,0.13,,,0.12,Wunderground v.1.15,2013-01-08 16:19:00,
2013-01-08 08:24:00,39.2,31.3,30.04,NE,54,1.0,4.0,73,0.13,,,0.13,Wunderground v.1.15,2013-01-08 16:24:00,
2013-01-08 08:29:00,39.1,31.2,30.03,WSW,250,1.0,4.0,73,0.13,,,0.14,Wunderground v.1.15,2013-01-08 16:29:00,
2013-01-08 08:34:00,39.1,31.2,30.03,NNW,338,1.0,4.0,73,0.15,,,0.16,Wunderground v.1.15,2013-01-08 16:34:00,
2013-01-08 08:40:00,39.1,31.2,30.03,NNW,344,1.0,1.0,73,0.15,,,0.17,Wunderground v.1.15,2013-01-08 16:40:00,
2013-01-08 08:44:00,39.1,31.2,30.03,NNE,30,1.0,4.0,73,0.12,,,0.18,Wunderground v.1.15,2013-01-08 16:44:00,
2013-01-08 08:49:00,39.0,31.1,30.03,NNE,20,0.0,4.0,73,0.11,,,0.19,Wunderground v.1.15,2013-01-08 16:49:00,
2013-01-08 08:54:00,39.1,31.2,30.03,North,4,0.0,4.0,73,0.11,,,0.19,Wunderground v.1.15,2013-01-08 16:54:00,
2013-01-08 09:00:00,39.0,31.1,30.02,NNW,342,0.0,4.0,73,0.10,,,0.20,Wunderground v.1.15,2013-01-08 17:00:00,
2013-01-08 09:05:00,39.0,31.1,30.02,ENE,65,0.0,4.0,73,0.10,,,0.21,Wunderground v.1.15,2013-01-08 17:05:00,
2013-01-08 09:10:00,39.0,31.1,30.02,SE,136,0.0,4.0,73,0.10,,,0.22,Wunderground v.1.15,2013-01-08 17:10:00,
2013-01-08 09:14:00,39.0,31.1,30.02,NNE,30,0.0,4.0,73,0.08,,,0.22,Wunderground v.1.15,2013-01-08 17:14:00,
2013-01-08 09:19:00,39.0,31.1,30.01,ENE,66,1.0,4.0,73,0.08,,,0.23,Wunderground v.1.15,2013-01-08 17:19:00,
2013-01-08 09:24:00,39.1,31.2,30.01,SE,131,1.0,4.0,73,0.06,,,0.23,Wunderground v.1.15,2013-01-08 17:24:00,
2013-01-08 09:30:00,39.1,31.2,30.01,SE,135,1.0,1.0,73,0.06,,,0.24,Wunderground v.1.15,2013-01-08 17:30:00,
2013-01-08 09:35:00,39.1,31.2,30.00,NW,326,1.0,4.0,73,0.06,,,0.24,Wunderground v.1.15,2013-01-08 17:35:00,
2013-01-08 09:40:00,39.1,31.2,29.99,North,354,1.0,4.0,73,0.06,,,0.25,Wunderground v.1.15,2013-01-08 17:40:00,
2013-01-08 09:44:00,39.1,31.2,29.99,East,84,1.0,4.0,73,0.06,,,0.25,Wunderground v.1.15,2013-01-08 17:44:00,
2013-01-08 09:49:00,39.2,31.3,29.99,NNE,20,1.0,1.0,73,0.05,,,0.26,Wunderground v.1.15,2013-01-08 17:49:00,
2013-01-08 09:55:00,39.1,31.2,29.99,WNW,295,2.0,2.0,73,0.05,,,0.26,Wunderground v.1.15,2013-01-08 17:55:00,
2013-01-08 10:00:00,39.2,31.3,29.98,ESE,113,1.0,1.0,73,0.05,,,0.27,Wunderground v.1.15,2013-01-08 18:00:00,
2013-01-08 10:04:00,39.2,31.3,29.98,North,11,1.0,4.0,73,0.05,,,0.27,Wunderground v.1.15,2013-01-08 18:04:00,
2013-01-08 10:09:00,39.1,31.2,29.97,NW,320,2.0,2.0,73,0.10,,,0.28,Wunderground v.1.15,2013-01-08 18:09:00,
2013-01-08 10:14:00,39.1,31.2,29.97,NW,315,2.0,4.0,73,0.07,,,0.29,Wunderground v.1.15,2013-01-08 18:14:00,
2013-01-08 10:20:00,39.1,31.2,29.97,NE,37,2.0,4.0,73,0.07,,,0.29,Wunderground v.1.15,2013-01-08 18:20:00,
2013-01-08 10:25:00,39.1,31.2,29.97,NNE,15,2.0,4.0,73,0.05,,,0.30,Wunderground v.1.15,2013-01-08 18:25:00,
2013-01-08 10:29:00,39.1,31.2,29.96,SE,127,2.0,4.0,73,0.05,,,0.30,Wunderground v.1.15,2013-01-08 18:29:00,
2013-01-08 10:34:00,39.0,31.1,29.96,WNW,288,2.0,4.0,73,0.06,,,0.30,Wunderground v.1.15,2013-01-08 18:34:00,
2013-01-08 10:39:00,39.0,31.4,29.96,ESE,122,2.0,4.0,74,0.06,,,0.31,Wunderground v.1.15,2013-01-08 18:39:00,
2013-01-08 10:45:00,39.0,31.1,29.95,West,278,2.0,4.0,73,0.09,,,0.32,Wunderground v.1.15,2013-01-08 18:45:00,
2013-01-08 10:50:00,38.9,31.0,29.95,West,278,2.0,2.0,73,0.10,,,0.33,Wunderground v.1.15,2013-01-08 18:50:00,
2013-01-08 10:54:00,38.9,31.0,29.95,ENE,69,1.0,4.0,73,0.08,,,0.33,Wunderground v.1.15,2013-01-08 18:54:00,
2013-01-08 10:59:00,38.8,30.9,29.95,West,280,2.0,4.0,73,0.06,,,0.34,Wunderground v.1.15,2013-01-08 18:59:00,
2013-01-08 11:04:00,38.9,31.0,29.94,NNE,23,2.0,4.0,73,0.06,,,0.34,Wunderground v.1.15,2013-01-08 19:04:00,
2013-01-08 11:10:00,38.8,30.9,29.93,NNE,16,2.0,2.0,73,0.05,,,0.34,Wunderground v.1.15,2013-01-08 19:10:00,
2013-01-08 11:15:00,38.8,30.9,29.93,NNW,327,2.0,4.0,73,0.04,,,0.35,Wunderground v.1.15,2013-01-08 19:15:00,
2013-01-08 11:19:00,38.8,30.9,29.93,WSW,257,1.0,4.0,73,0.04,,,0.35,Wunderground v.1.15,2013-01-08 19:19:00,
2013-01-08 11:24:00,38.8,30.9,29.92,SE,131,1.0,4.0,73,0.06,,,0.36,Wunderground v.1.15,2013-01-08 19:24:00,
2013-01-08 11:29:00,38.7,30.8,29.92,NNW,338,2.0,2.0,73,0.06,,,0.36,Wunderground v.1.15,2013-01-08 19:29:00,
2013-01-08 11:35:00,38.6,30.7,29.92,NNE,32,2.0,8.0,73,0.05,,,0.36,Wunderground v.1.15,2013-01-08 19:35:00,
2013-01-08 11:40:00,38.6,30.7,29.92,NNW,334,2.0,2.0,73,0.05,,,0.37,Wunderground v.1.15,2013-01-08 19:40:00,
2013-01-08 11:44:00,38.5,30.6,29.92,WNW,290,3.0,3.0,73,0.05,,,0.37,Wunderground v.1.15,2013-01-08 19:44:00,
2013-01-08 11:49:00,38.5,30.6,29.92,NNW,329,3.0,4.0,73,0.04,,,0.37,Wunderground v.1.15,2013-01-08 19:49:00,
2013-01-08 11:54:00,38.5,30.6,29.91,NE,46,3.0,4.0,73,0.00,,,0.37,Wunderground v.1.15,2013-01-08 19:54:00,
2013-01-08 12:00:00,38.3,30.7,29.91,WNW,297,3.0,3.0,74,0.00,,,0.37,Wunderground v.1.15,2013-01-08 20:00:00,
2013-01-08 12:05:00,38.3,30.7,29.90,NNW,338,3.0,4.0,74,0.00,,,0.37,Wunderground v.1.15,2013-01-08 20:05:00,
2013-01-08 12:09:00,38.3,30.7,29.90,NE,35,3.0,4.0,74,0.00,,,0.37,Wunderground v.1.15,2013-01-08 20:09:00,
2013-01-08 12:14:00,38.3,30.7,29.90,NW,319,3.0,4.0,74,0.00,,,0.38,Wunderground v.1.15,2013-01-08 20:14:00,
2013-01-08 12:19:00,38.3,30.7,29.90,ESE,103,3.0,3.0,74,0.08,,,0.39,Wunderground v.1.15,2013-01-08 20:19:00,
2013-01-08 12:25:00,38.3,30.4,29.89,West,263,3.0,4.0,73,0.08,,,0.39,Wunderground v.1.15,2013-01-08 20:25:00,
2013-01-08 12:30:00,38.3,30.4,29.89,NW,323,2.0,4.0,73,0.05,,,0.39,Wunderground v.1.15,2013-01-08 20:30:00,
2013-01-08 12:34:00,38.3,30.4,29.89,NW,312,3.0,4.0,73,0.00,,,0.39,Wunderground v.1.15,2013-01-08 20:34:00,
2013-01-08 12:39:00,38.4,30.5,29.89,East,90,3.0,3.0,73,0.00,,,0.39,Wunderground v.1.15,2013-01-08 20:39:00,
2013-01-08 12:44:00,38.3,30.4,29.89,West,277,3.0,6.0,73,0.00,,,0.40,Wunderground v.1.15,2013-01-08 20:44:00,
2013-01-08 12:50:00,38.3,30.4,29.88,WNW,296,3.0,4.0,73,0.09,,,0.41,Wunderground v.1.15,2013-01-08 20:50:00,
2013-01-08 12:55:00,38.4,30.5,29.87,NW,312,3.0,7.0,73,0.09,,,0.41,Wunderground v.1.15,2013-01-08 20:55:00,
2013-01-08 12:59:00,38.4,30.5,29.87,NW,325,3.0,4.0,73,0.06,,,0.41,Wunderground v.1.15,2013-01-08 20:59:00,
2013-01-08 13:04:00,38.4,30.5,29.87,NNW,340,3.0,4.0,73,0.04,,,0.41,Wunderground v.1.15,2013-01-08 21:04:00,
2013-01-08 13:09:00,38.4,30.5,29.87,NW,312,3.0,4.0,73,0.00,,,0.42,Wunderground v.1.15,2013-01-08 21:09:00,
2013-01-08 13:14:00,38.4,30.5,29.86,NE,41,3.0,4.0,73,0.00,,,0.42,Wunderground v.1.15,2013-01-08 21:14:00,
2013-01-08 13:20:00,38.4,30.5,29.86,NE,34,3.0,4.0,73,0.00,,,0.42,Wunderground v.1.15,2013-01-08 21:20:00,
2013-01-08 13:25:00,38.5,30.6,29.86,WSW,255,3.0,4.0,73,0.00,,,0.43,Wunderground v.1.15,2013-01-08 21:25:00,
2013-01-08 13:29:00,38.5,30.6,29.86,NNE,13,3.0,3.0,73,0.00,,,0.43,Wunderground v.1.15,2013-01-08 21:29:00,
2013-01-08 13:34:00,38.6,30.7,29.86,NNW,343,3.0,4.0,73,0.07,,,0.44,Wunderground v.1.15,2013-01-08 21:34:00,
2013-01-08 13:40:00,38.7,30.4,29.86,NE,38,2.0,4.0,72,0.07,,,0.44,Wunderground v.1.15,2013-01-08 21:40:00,
2013-01-08 13:45:00,39.0,30.7,29.85,West,277,2.0,4.0,72,0.08,,,0.45,Wunderground v.1.15,2013-01-08 21:45:00,
2013-01-08 13:49:00,39.1,30.8,29.85,NE,38,2.0,4.0,72,0.10,,,0.46,Wunderground v.1.15,2013-01-08 21:49:00,
2013-01-08 13:54:00,39.3,31.0,29.85,NW,307,2.0,4.0,72,0.08,,,0.46,Wunderground v.1.15,2013-01-08 21:54:00,
2013-01-08 13:59:00,39.6,31.3,29.85,NW,326,3.0,5.0,72,0.07,,,0.47,Wunderground v.1.15,2013-01-08 21:59:00,
2013-01-08 14:04:00,39.5,31.2,29.85,NNE,15,3.0,10.0,72,0.06,,,0.47,Wunderground v.1.15,2013-01-08 22:04:00,
2013-01-08 14:10:00,39.6,31.3,29.84,NE,38,3.0,3.0,72,0.04,,,0.47,Wunderground v.1.15,2013-01-08 22:10:00,
2013-01-08 14:15:00,39.8,31.5,29.84,WNW,295,3.0,5.0,72,0.00,,,0.47,Wunderground v.1.15,2013-01-08 22:15:00,
2013-01-08 14:24:00,39.8,31.8,29.84,West,264,3.0,3.0,73,0.00,,,0.48,Wunderground v.1.15,2013-01-08 22:24:00,
2013-01-08 14:29:00,40.0,31.7,29.83,WNW,300,3.0,3.0,72,0.00,,,0.48,Wunderground v.1.15,2013-01-08 22:29:00,
2013-01-08 14:35:00,40.4,31.7,29.83,NW,315,2.0,5.0,71,0.00,,,0.48,Wunderground v.1.15,2013-01-08 22:35:00,
2013-01-08 14:40:00,41.5,32.8,29.83,SE,133,3.0,3.0,71,0.00,,,0.48,Wunderground v.1.15,2013-01-08 22:40:00,
2013-01-08 14:44:00,41.5,32.8,29.83,NE,54,3.0,4.0,71,0.00,,,0.48,Wunderground v.1.15,2013-01-08 22:44:00,
2013-01-08 14:49:00,42.0,33.3,29.83,ENE,65,3.0,3.0,71,0.00,,,0.48,Wunderground v.1.15,2013-01-08 22:49:00,
2013-01-08 14:54:00,42.0,33.3,29.83,ENE,60,3.0,4.0,71,0.00,,,0.48,Wunderground v.1.15,2013-01-08 22:54:00,
2013-01-08 15:00:00,42.5,33.8,29.83,WNW,300,2.0,2.0,71,0.00,,,0.48,Wunderground v.1.15,2013-01-08 23:00:00,
2013-01-08 15:05:00,42.1,33.4,29.82,NE,34,3.0,3.0,71,0.00,,,0.48,Wunderground v.1.15,2013-01-08 23:05:00,
2013-01-08 15:10:00,41.7,33.0,29.81,NNW,332,2.0,2.0,71,0.00,,,0.48,Wunderground v.1.15,2013-01-08 23:10:00,
2013-01-08 15:19:00,43.7,34.9,29.81,NNE,18,2.0,2.0,71,0.00,,,0.49,Wunderground v.1.15,2013-01-08 23:19:00,
2013-01-08 15:24:00,43.8,35.0,29.81,NNW,331,2.0,4.0,71,0.00,,,0.49,Wunderground v.1.15,2013-01-08 23:24:00,
2013-01-08 15:30:00,43.8,35.0,29.81,NNE,32,2.0,2.0,71,0.00,,,0.49,Wunderground v.1.15,2013-01-08 23:30:00,
2013-01-08 15:34:00,43.9,35.1,29.80,NNW,335,1.0,4.0,71,0.00,,,0.49,Wunderground v.1.15,2013-01-08 23:34:00,
2013-01-08 15:39:00,44.6,35.8,29.78,SSE,150,2.0,7.0,71,0.00,,,0.49,Wunderground v.1.15,2013-01-08 23:39:00,
2013-01-08 15:44:00,45.0,36.2,29.78,NE,42,3.0,7.0,71,0.00,,,0.49,Wunderground v.1.15,2013-01-08 23:44:00,
2013-01-08 15:49:00,46.0,37.1,29.78,SW,218,3.0,9.0,71,0.00,,,0.49,Wunderground v.1.15,2013-01-08 23:49:00,
2013-01-08 15:55:00,46.5,37.6,29.77,SW,229,3.0,9.0,71,0.00,,,0.49,Wunderground v.1.15,2013-01-08 23:55:00,
2013-01-08 16:00:00,46.9,37.6,29.77,SSW,198,3.0,4.0,70,0.00,,,0.49,Wunderground v.1.15,2013-01-09 00:00:00,
2013-01-08 16:09:00,47.2,40.7,29.77,SW,233,4.0,4.0,78,0.00,,,0.49,Wunderground v.1.15,2013-01-09 00:09:00,
2013-01-08 16:14:00,47.4,40.6,29.76,SSE,167,3.0,4.0,77,0.00,,,0.49,Wunderground v.1.15,2013-01-09 00:14:00,
2013-01-08 16:19:00,47.3,41.1,29.77,WNW,293,2.0,2.0,79,0.00,,,0.49,Wunderground v.1.15,2013-01-09 00:19:00,
2013-01-08 16:25:00,47.6,40.1,29.76,NE,54,2.0,4.0,75,0.00,,,0.49,Wunderground v.1.15,2013-01-09 00:25:00,
2013-01-08 16:30:00,48.0,39.8,29.76,NE,46,2.0,2.0,73,0.00,,,0.49,Wunderground v.1.15,2013-01-09 00:30:00,
2013-01-08 16:34:00,48.3,40.0,29.76,SE,136,3.0,3.0,73,0.00,,,0.49,Wunderground v.1.15,2013-01-09 00:34:00,
2013-01-08 16:39:00,48.8,40.9,29.75,SSW,192,3.0,7.0,74,0.00,,,0.49,Wunderground v.1.15,2013-01-09 00:39:00,
2013-01-08 16:45:00,49.1,42.2,29.75,West,278,4.0,7.0,77,0.00,,,0.49,Wunderground v.1.15,2013-01-09 00:45:00,
2013-01-08 16:50:00,49.2,42.6,29.75,SE,129,4.0,4.0,78,0.00,,,0.49,Wunderground v.1.15,2013-01-09 00:50:00,
2013-01-08 16:54:00,49.4,43.2,29.75,WSW,249,4.0,6.0,79,0.00,,,0.49,Wunderground v.1.15,2013-01-09 00:54:00,
2013-01-08 16:59:00,49.5,43.6,29.75,WSW,242,5.0,5.0,80,0.00,,,0.49,Wunderground v.1.15,2013-01-09 00:59:00,
2013-01-08 17:04:00,49.4,43.2,29.74,ENE,74,4.0,7.0,79,0.00,,,0.49,Wunderground v.1.15,2013-01-09 01:04:00,
2013-01-08 17:10:00,49.5,43.3,29.74,SSE,148,4.0,4.0,79,0.00,,,0.49,Wunderground v.1.15,2013-01-09 01:10:00,
2013-01-08 17:15:00,49.6,43.4,29.74,WSW,238,4.0,4.0,79,0.00,,,0.49,Wunderground v.1.15,2013-01-09 01:15:00,
2013-01-08 17:19:00,49.5,43.3,29.73,SSW,198,5.0,5.0,79,0.00,,,0.49,Wunderground v.1.15,2013-01-09 01:19:00,
2013-01-08 17:24:00,49.5,42.9,29.73,NE,56,5.0,6.0,78,0.00,,,0.49,Wunderground v.1.15,2013-01-09 01:24:00,
2013-01-08 17:29:00,49.5,42.6,29.73,SW,221,4.0,4.0,77,0.00,,,0.49,Wunderground v.1.15,2013-01-09 01:29:00,
2013-01-08 17:34:00,49.6,42.3,29.73,SSW,199,5.0,11.0,76,0.00,,,0.49,Wunderground v.1.15,2013-01-09 01:34:00,
2013-01-08 17:40:00,49.5,42.2,29.73,ENE,67,5.0,5.0,76,0.00,,,0.49,Wunderground v.1.15,2013-01-09 01:40:00,
2013-01-08 17:45:00,49.4,41.5,29.73,SW,219,3.0,5.0,74,0.00,,,0.49,Wunderground v.1.15,2013-01-09 01:45:00,
2013-01-08 17:49:00,49.4,41.5,29.72,SW,218,3.0,7.0,74,0.00,,,0.49,Wunderground v.1.15,2013-01-09 01:49:00,
2013-01-08 17:54:00,49.4,41.5,29.73,WSW,250,4.0,7.0,74,0.00,,,0.49,Wunderground v.1.15,2013-01-09 01:54:00,
2013-01-08 18:00:00,49.4,41.5,29.73,SSE,162,4.0,5.0,74,0.00,,,0.49,Wunderground v.1.15,2013-01-09 02:00:00,
2013-01-08 18:05:00,49.5,41.2,29.72,SW,219,4.0,5.0,73,0.00,,,0.49,Wunderground v.1.15,2013-01-09 02:05:00,
2013-01-08 18:10:00,49.5,41.2,29.73,WSW,243,5.0,5.0,73,0.00,,,0.49,Wunderground v.1.15,2013-01-09 02:10:00,
2013-01-08 18:19:00,49.5,41.6,29.73,WSW,248,5.0,5.0,74,0.00,,,0.49,Wunderground v.1.15,2013-01-09 02:19:00,
2013-01-08 18:24:00,49.5,41.6,29.73,West,265,4.0,7.0,74,0.00,,,0.49,Wunderground v.1.15,2013-01-09 02:24:00,
2013-01-08 18:30:00,49.5,41.6,29.72,West,276,4.0,8.0,74,0.00,,,0.49,Wunderground v.1.15,2013-01-09 02:30:00,
2013-01-08 18:35:00,49.6,41.7,29.73,ESE,120,4.0,8.0,74,0.00,,,0.49,Wunderground v.1.15,2013-01-09 02:35:00,
2013-01-08 18:40:00,49.6,41.7,29.72,SSW,194,4.0,9.0,74,0.00,,,0.49,Wunderground v.1.15,2013-01-09 02:40:00,
2013-01-08 18:44:00,49.7,42.1,29.72,WSW,245,4.0,9.0,75,0.00,,,0.49,Wunderground v.1.15,2013-01-09 02:44:00,
2013-01-08 18:49:00,49.7,42.4,29.73,SSW,205,5.0,8.0,76,0.00,,,0.49,Wunderground v.1.15,2013-01-09 02:49:00,
2013-01-08 18:54:00,49.7,42.1,29.72,SSE,147,5.0,8.0,75,0.00,,,0.49,Wunderground v.1.15,2013-01-09 02:54:00,
2013-01-08 19:00:00,49.7,42.1,29.72,West,280,4.0,4.0,75,0.00,,,0.49,Wunderground v.1.15,2013-01-09 03:00:00,
2013-01-08 19:05:00,49.7,42.1,29.72,West,262,5.0,5.0,75,0.00,,,0.49,Wunderground v.1.15,2013-01-09 03:05:00,
2013-01-08 19:09:00,49.7,42.1,29.72,WNW,288,4.0,4.0,75,0.00,,,0.50,Wunderground v.1.15,2013-01-09 03:09:00,
2013-01-08 19:14:00,49.6,41.7,29.72,SSW,201,3.0,4.0,74,0.00,,,0.50,Wunderground v.1.15,2013-01-09 03:14:00,
2013-01-08 19:19:00,49.6,41.3,29.72,SW,226,3.0,3.0,73,0.00,,,0.50,Wunderground v.1.15,2013-01-09 03:19:00,
2013-01-08 19:25:00,49.5,41.2,29.72,NNW,340,4.0,4.0,73,0.00,,,0.50,Wunderground v.1.15,2013-01-09 03:25:00,
2013-01-08 19:30:00,49.5,40.8,29.72,SSE,163,4.0,10.0,72,0.00,,,0.50,Wunderground v.1.15,2013-01-09 03:30:00,
2013-01-08 19:34:00,49.5,40.8,29.72,SW,224,4.0,11.0,72,0.00,,,0.50,Wunderground v.1.15,2013-01-09 03:34:00,
2013-01-08 19:39:00,49.5,40.8,29.72,SW,217,4.0,4.0,72,0.00,,,0.50,Wunderground v.1.15,2013-01-09 03:39:00,
2013-01-08 19:45:00,49.5,40.8,29.72,SSW,202,5.0,5.0,72,0.00,,,0.50,Wunderground v.1.15,2013-01-09 03:45:00,
2013-01-08 19:50:00,49.5,40.8,29.72,South,181,4.0,4.0,72,0.00,,,0.50,Wunderground v.1.15,2013-01-09 03:50:00,
2013-01-08 19:55:00,49.4,40.4,29.73,SSE,148,4.0,4.0,71,0.00,,,0.51,Wunderground v.1.15,2013-01-09 03:55:00,
2013-01-08 19:59:00,49.4,40.4,29.72,WSW,252,3.0,3.0,71,0.00,,,0.51,Wunderground v.1.15,2013-01-09 03:59:00,
2013-01-08 20:04:00,49.4,40.0,29.72,SSE,166,3.0,7.0,70,0.00,,,0.51,Wunderground v.1.15,2013-01-09 04:04:00,
2013-01-08 20:09:00,49.3,39.9,29.72,SSE,160,3.0,4.0,70,0.00,,,0.51,Wunderground v.1.15,2013-01-09 04:09:00,
2013-01-08 20:15:00,49.3,39.9,29.73,WNW,294,3.0,9.0,70,0.00,,,0.51,Wunderground v.1.15,2013-01-09 04:15:00,
2013-01-08 20:20:00,49.3,39.9,29.72,South,191,3.0,5.0,70,0.00,,,0.51,Wunderground v.1.15,2013-01-09 04:20:00,
2013-01-08 20:29:00,49.3,39.9,29.72,SW,229,3.0,6.0,70,0.00,,,0.51,Wunderground v.1.15,2013-01-09 04:29:00,
2013-01-08 20:34:00,49.3,39.9,29.72,SE,138,3.0,6.0,70,0.00,,,0.51,Wunderground v.1.15,2013-01-09 04:34:00,
2013-01-08 20:40:00,49.3,39.6,29.72,West,266,3.0,4.0,69,0.00,,,0.51,Wunderground v.1.15,2013-01-09 04:40:00,
2013-01-08 20:45:00,49.2,39.5,29.72,SW,225,3.0,4.0,69,0.00,,,0.51,Wunderground v.1.15,2013-01-09 04:45:00,
2013-01-08 20:49:00,49.2,39.1,29.72,SE,139,3.0,4.0,68,0.00,,,0.51,Wunderground v.1.15,2013-01-09 04:49:00,
2013-01-08 20:54:00,49.2,39.1,29.72,WSW,238,4.0,4.0,68,0.00,,,0.51,Wunderground v.1.15,2013-01-09 04:54:00,
2013-01-08 20:59:00,49.2,39.5,29.72,SE,124,4.0,4.0,69,0.00,,,0.51,Wunderground v.1.15,2013-01-09 04:59:00,
2013-01-08 21:04:00,49.1,39.0,29.73,NW,307,3.0,4.0,68,0.00,,,0.51,Wunderground v.1.15,2013-01-09 05:04:00,
2013-01-08 21:10:00,49.1,39.0,29.73,SW,230,3.0,3.0,68,0.00,,,0.52,Wunderground v.1.15,2013-01-09 05:10:00,
2013-01-08 21:15:00,49.1,39.0,29.72,SW,221,3.0,4.0,68,0.00,,,0.52,Wunderground v.1.15,2013-01-09 05:15:00,
2013-01-08 21:19:00,49.1,38.6,29.72,NW,307,3.0,4.0,67,0.00,,,0.52,Wunderground v.1.15,2013-01-09 05:19:00,
2013-01-08 21:24:00,49.0,38.5,29.72,WSW,241,3.0,5.0,67,0.00,,,0.52,Wunderground v.1.15,2013-01-09 05:24:00,
2013-01-08 21:29:00,49.0,38.5,29.72,SSE,149,2.0,5.0,67,0.00,,,0.52,Wunderground v.1.15,2013-01-09 05:29:00,
2013-01-08 21:35:00,49.0,38.5,29.72,WSW,238,3.0,5.0,67,0.00,,,0.53,Wunderground v.1.15,2013-01-09 05:35:00,
2013-01-08 21:39:00,49.0,38.5,29.72,SE,129,4.0,4.0,67,0.00,,,0.53,Wunderground v.1.15,2013-01-09 05:39:00,
2013-01-08 21:44:00,48.9,38.0,29.72,SSW,203,3.0,4.0,66,0.00,,,0.53,Wunderground v.1.15,2013-01-09 05:44:00,
2013-01-08 21:50:00,48.9,38.0,29.72,NW,313,3.0,3.0,66,0.00,,,0.53,Wunderground v.1.15,2013-01-09 05:50:00,
2013-01-08 21:55:00,48.9,38.0,29.72,SSE,166,3.0,4.0,66,0.00,,,0.54,Wunderground v.1.15,2013-01-09 05:55:00,
2013-01-08 22:04:00,48.9,38.0,29.72,SW,227,2.0,4.0,66,0.06,,,0.55,Wunderground v.1.15,2013-01-09 06:04:00,
2013-01-08 22:09:00,48.8,37.9,29.72,WSW,252,3.0,3.0,66,0.10,,,0.56,Wunderground v.1.15,2013-01-09 06:09:00,
2013-01-08 22:14:00,48.8,37.9,29.72,SSW,208,2.0,4.0,66,0.08,,,0.57,Wunderground v.1.15,2013-01-09 06:14:00,
2013-01-08 22:20:00,48.8,37.9,29.72,SW,226,2.0,2.0,66,0.14,,,0.58,Wunderground v.1.15,2013-01-09 06:20:00,
2013-01-08 22:25:00,48.7,37.8,29.71,SW,226,1.0,4.0,66,0.09,,,0.58,Wunderground v.1.15,2013-01-09 06:25:00,
2013-01-08 22:34:00,48.7,37.8,29.72,SW,214,1.0,4.0,66,0.04,,,0.59,Wunderground v.1.15,2013-01-09 06:34:00,
2013-01-08 22:39:00,48.8,37.9,29.71,NNW,340,2.0,4.0,66,0.04,,,0.59,Wunderground v.1.15,2013-01-09 06:39:00,
2013-01-08 22:45:00,48.8,38.3,29.71,SSE,163,3.0,4.0,67,0.04,,,0.59,Wunderground v.1.15,2013-01-09 06:45:00,
2013-01-08 22:49:00,48.9,38.8,29.71,SW,224,3.0,5.0,68,0.04,,,0.59,Wunderground v.1.15,2013-01-09 06:49:00,
2013-01-08 22:54:00,48.9,39.2,29.71,West,281,3.0,5.0,69,0.00,,,0.59,Wunderground v.1.15,2013-01-09 06:54:00,
2013-01-08 22:59:00,48.9,39.2,29.71,SSW,204,3.0,3.0,69,0.00,,,0.59,Wunderground v.1.15,2013-01-09 06:59:00,
2013-01-08 23:04:00,48.9,39.2,29.70,WSW,250,2.0,4.0,69,0.00,,,0.59,Wunderground v.1.15,2013-01-09 07:04:00,
2013-01-08 23:10:00,49.0,39.6,29.70,WSW,247,3.0,7.0,70,0.00,,,0.59,Wunderground v.1.15,2013-01-09 07:10:00,
2013-01-08 23:15:00,49.0,40.0,29.70,West,264,3.0,7.0,71,0.00,,,0.59,Wunderground v.1.15,2013-01-09 07:15:00,
2013-01-08 23:24:00,49.0,40.0,29.70,SSW,207,3.0,4.0,71,0.00,,,0.60,Wunderground v.1.15,2013-01-09 07:24:00,
2013-01-08 23:29:00,49.0,40.4,29.70,South,174,3.0,3.0,72,0.00,,,0.60,Wunderground v.1.15,2013-01-09 07:29:00,
2013-01-08 23:34:00,49.0,40.4,29.70,WNW,297,2.0,4.0,72,0.00,,,0.60,Wunderground v.1.15,2013-01-09 07:34:00,
2013-01-08 23:40:00,48.9,39.9,29.70,West,278,2.0,2.0,71,0.00,,,0.60,Wunderground v.1.15,2013-01-09 07:40:00,
2013-01-08 23:45:00,48.9,39.5,29.70,West,269,3.0,3.0,70,0.00,,,0.61,Wunderground v.1.15,2013-01-09 07:45:00,
2013-01-08 23:54:00,48.8,39.4,29.70,SW,229,2.0,4.0,70,0.14,,,0.64,Wunderground v.1.15,2013-01-09 07:54:00,
2013-01-08 23:59:00,48.8,39.1,29.70,SSW,212,3.0,4.0,69,0.09,,,0.64,Wunderground v.1.15,2013-01-09 07:59:00,